Time,TemperatureF,DewpointF,PressureIn,WindDirection,WindDirectionDegrees,WindSpeedMPH,WindSpeedGustMPH,Humidity,HourlyPrecipIn,Conditions,Clouds,dailyrainin,SoftwareType,DateUTC
2013-01-08 00:01:00,43.0,42.0,30.12,ESE,118,0.0,2.0,95,0.00,,,0.83,,2013-01-08 08:01:00,
2013-01-08 00:11:00,43.0,42.0,30.12,ESE,118,0.0,2.0,95,0.00,,,0.83,,2013-01-08 08:11:00,
2013-01-08 00:22:00,43.0,42.0,30.13,East,97,0.0,1.0,95,0.00,,,0.78,,2013-01-08 08:22:00,
2013-01-08 00:32:00,43.0,42.0,30.13,East,92,0.0,3.0,95,0.00,,,0.78,,2013-01-08 08:32:00,
2013-01-08 00:42:00,43.0,42.0,30.13,East,92,0.0,3.0,95,0.00,,,0.78,,2013-01-08 08:42:00,
2013-01-08 00:52:00,43.0,41.0,30.13,East,84,0.0,2.0,94,0.00,,,0.78,,2013-01-08 08:52:00,
2013-01-08 01:02:00,42.0,40.0,30.13,East,84,0.0,3.0,94,0.00,,,0.78,,2013-01-08 09:02:00,
2013-01-08 01:11:00,42.0,40.0,30.13,East,84,0.0,3.0,94,0.00,,,0.78,,2013-01-08 09:11:00,
2013-01-08 01:22:00,42.0,40.0,30.12,East,84,0.0,3.0,94,0.00,,,0.71,,2013-01-08 09:22:00,
2013-01-08 01:32:00,42.0,40.0,30.12,ENE,74,0.0,4.0,94,0.00,,,0.71,,2013-01-08 09:32:00,
2013-01-08 01:42:00,42.0,40.0,30.12,ENE,74,0.0,4.0,94,0.00,,,0.71,,2013-01-08 09:42:00,
2013-01-08 01:52:00,42.0,40.0,30.12,East,81,1.0,3.0,94,0.00,,,0.71,,2013-01-08 09:52:00,
2013-01-08 02:02:00,42.0,40.0,30.12,East,81,1.0,3.0,94,0.00,,,0.71,,2013-01-08 10:02:00,
2013-01-08 02:12:00,42.0,40.0,30.12,East,81,1.0,3.0,94,0.00,,,0.71,,2013-01-08 10:12:00,
2013-01-08 02:22:00,42.0,40.0,30.11,ENE,69,0.0,4.0,94,0.00,,,0.61,,2013-01-08 10:22:00,
2013-01-08 02:32:00,42.0,40.0,30.11,East,84,0.0,3.0,94,0.00,,,0.61,,2013-01-08 10:32:00,
2013-01-08 02:42:00,42.0,40.0,30.11,East,84,0.0,3.0,94,0.00,,,0.61,,2013-01-08 10:42:00,
2013-01-08 02:52:00,42.0,40.0,30.11,East,86,1.0,3.0,94,0.00,,,0.61,,2013-01-08 10:52:00,
2013-01-08 03:02:00,42.0,40.0,30.11,East,79,0.0,3.0,94,0.00,,,0.61,,2013-01-08 11:02:00,
2013-01-08 03:11:00,42.0,40.0,30.11,East,79,0.0,3.0,94,0.00,,,0.61,,2013-01-08 11:11:00,
2013-01-08 03:22:00,42.0,40.0,30.11,East,80,0.0,2.0,94,0.00,,,0.51,,2013-01-08 11:22:00,
2013-01-08 03:32:00,42.0,40.0,30.11,East,80,0.0,2.0,94,0.00,,,0.51,,2013-01-08 11:32:00,
2013-01-08 03:42:00,42.0,40.0,30.11,East,80,0.0,2.0,94,0.00,,,0.51,,2013-01-08 11:42:00,
2013-01-08 03:53:00,42.0,40.0,30.10,ESE,117,2.0,4.0,94,0.00,,,0.51,,2013-01-08 11:53:00,
2013-01-08 04:02:00,43.0,41.0,30.09,SSE,150,2.0,6.0,93,0.00,,,0.51,,2013-01-08 12:02:00,
2013-01-08 04:11:00,43.0,41.0,30.09,SSE,150,2.0,6.0,93,0.00,,,0.51,,2013-01-08 12:11:00,
2013-01-08 04:22:00,43.0,41.0,30.09,SE,140,3.0,6.0,91,0.00,,,0.48,,2013-01-08 12:22:00,
2013-01-08 04:32:00,43.0,40.0,30.09,SE,125,1.0,4.0,90,0.00,,,0.48,,2013-01-08 12:32:00,
2013-01-08 04:42:00,43.0,40.0,30.09,SE,125,1.0,4.0,90,0.00,,,0.48,,2013-01-08 12:42:00,
2013-01-08 04:53:00,43.0,40.0,30.09,SE,138,2.0,5.0,90,0.00,,,0.48,,2013-01-08 12:53:00,
2013-01-08 05:02:00,43.0,40.0,30.09,ESE,115,1.0,5.0,90,0.00,,,0.48,,2013-01-08 13:02:00,
2013-01-08 05:12:00,43.0,40.0,30.09,ESE,115,1.0,5.0,90,0.00,,,0.48,,2013-01-08 13:12:00,
2013-01-08 05:22:00,43.0,40.0,30.09,ESE,110,1.0,4.0,90,0.00,,,0.47,,2013-01-08 13:22:00,
2013-01-08 05:32:00,44.0,41.0,30.08,ESE,121,0.0,4.0,90,0.00,,,0.47,,2013-01-08 13:32:00,
2013-01-08 05:42:00,44.0,41.0,30.08,ESE,121,0.0,4.0,90,0.00,,,0.47,,2013-01-08 13:42:00,
2013-01-08 05:53:00,44.0,41.0,30.07,ESE,111,1.0,8.0,89,0.00,,,0.47,,2013-01-08 13:53:00,
2013-01-08 06:02:00,44.0,41.0,30.07,SE,146,0.0,4.0,89,0.00,,,0.47,,2013-01-08 14:02:00,
2013-01-08 06:12:00,44.0,41.0,30.07,SE,146,0.0,4.0,89,0.00,,,0.47,,2013-01-08 14:12:00,
2013-01-08 06:22:00,44.0,41.0,30.07,ESE,117,0.0,3.0,89,0.00,,,0.43,,2013-01-08 14:22:00,
2013-01-08 06:32:00,44.0,41.0,30.06,SE,142,1.0,4.0,90,0.00,,,0.43,,2013-01-08 14:32:00,
2013-01-08 06:42:00,44.0,41.0,30.06,SE,142,1.0,4.0,90,0.00,,,0.43,,2013-01-08 14:42:00,
2013-01-08 06:52:00,43.0,41.0,30.05,East,93,0.0,3.0,91,0.01,,,0.44,,2013-01-08 14:52:00,
2013-01-08 07:02:00,43.0,40.0,30.04,ESE,119,1.0,7.0,90,0.01,,,0.44,,2013-01-08 15:02:00,
2013-01-08 07:12:00,43.0,40.0,30.04,ESE,119,1.0,7.0,90,0.01,,,0.44,,2013-01-08 15:12:00,
2013-01-08 07:22:00,43.0,41.0,30.02,SE,136,0.0,2.0,91,0.02,,,0.35,,2013-01-08 15:22:00,
2013-01-08 07:32:00,43.0,41.0,30.02,SE,136,0.0,2.0,91,0.02,,,0.35,,2013-01-08 15:32:00,
2013-01-08 07:42:00,43.0,41.0,30.02,SE,136,0.0,2.0,91,0.02,,,0.35,,2013-01-08 15:42:00,
2013-01-08 07:52:00,42.0,40.0,30.02,SSE,154,0.0,4.0,92,0.03,,,0.37,,2013-01-08 15:52:00,
2013-01-08 08:02:00,42.0,40.0,30.02,SSE,154,0.0,4.0,92,0.03,,,0.37,,2013-01-08 16:02:00,
2013-01-08 08:12:00,42.0,40.0,30.02,SSE,154,0.0,4.0,92,0.03,,,0.37,,2013-01-08 16:12:00,
2013-01-08 08:22:00,42.0,40.0,30.02,East,88,1.0,4.0,92,0.04,,,0.38,,2013-01-08 16:22:00,
2013-01-08 08:32:00,41.0,39.0,30.02,ESE,123,1.0,4.0,92,0.04,,,0.37,,2013-01-08 16:32:00,
2013-01-08 08:42:00,41.0,39.0,30.02,ESE,123,1.0,4.0,92,0.04,,,0.37,,2013-01-08 16:42:00,
2013-01-08 08:52:00,41.0,39.0,30.01,SE,127,0.0,2.0,92,0.04,,,0.38,,2013-01-08 16:52:00,
2013-01-08 09:02:00,41.0,39.0,30.01,East,81,0.0,3.0,93,0.04,,,0.39,,2013-01-08 17:02:00,
2013-01-08 09:12:00,41.0,39.0,30.01,East,81,0.0,3.0,93,0.04,,,0.39,,2013-01-08 17:12:00,
2013-01-08 09:22:00,40.0,38.0,30.01,East,81,0.0,2.0,93,0.03,,,0.39,,2013-01-08 17:22:00,
2013-01-08 09:33:00,40.0,38.0,30.01,SE,140,0.0,3.0,94,0.02,,,0.40,,2013-01-08 17:33:00,
2013-01-08 09:42:00,40.0,38.0,30.01,SE,140,0.0,3.0,94,0.02,,,0.40,,2013-01-08 17:42:00,
2013-01-08 09:53:00,40.0,38.0,30.00,ESE,109,1.0,3.0,93,0.02,,,0.40,,2013-01-08 17:53:00,
2013-01-08 10:03:00,40.0,38.0,29.99,East,90,0.0,3.0,93,0.02,,,0.41,,2013-01-08 18:03:00,
2013-01-08 10:12:00,40.0,38.0,29.99,East,90,0.0,3.0,93,0.02,,,0.41,,2013-01-08 18:12:00,
2013-01-08 10:22:00,40.0,38.0,29.97,East,86,1.0,4.0,94,0.03,,,0.42,,2013-01-08 18:22:00,
2013-01-08 10:33:00,40.0,38.0,29.96,ENE,58,0.0,4.0,94,0.02,,,0.40,,2013-01-08 18:33:00,
2013-01-08 10:43:00,40.0,38.0,29.96,ENE,58,0.0,4.0,94,0.02,,,0.40,,2013-01-08 18:43:00,
2013-01-08 10:52:00,40.0,38.0,29.95,East,83,1.0,3.0,94,0.02,,,0.40,,2013-01-08 18:52:00,
2013-01-08 11:02:00,40.0,38.0,29.94,SE,134,0.0,3.0,94,0.01,,,0.40,,2013-01-08 19:02:00,
2013-01-08 11:12:00,40.0,38.0,29.94,SE,134,0.0,3.0,94,0.01,,,0.40,,2013-01-08 19:12:00,
2013-01-08 11:22:00,40.0,38.0,29.93,ESE,107,1.0,6.0,94,0.00,,,0.40,,2013-01-08 19:22:00,
2013-01-08 11:32:00,40.0,38.0,29.92,ENE,73,0.0,4.0,94,0.00,,,0.38,,2013-01-08 19:32:00,
2013-01-08 11:42:00,40.0,38.0,29.92,ENE,73,0.0,4.0,94,0.00,,,0.38,,2013-01-08 19:42:00,
2013-01-08 11:52:00,41.0,39.0,29.91,SSE,147,0.0,4.0,94,0.00,,,0.38,,2013-01-08 19:52:00,
2013-01-08 12:02:00,41.0,39.0,29.91,SSW,200,0.0,3.0,94,0.00,,,0.38,,2013-01-08 20:02:00,
2013-01-08 12:12:00,41.0,39.0,29.91,SSW,200,0.0,3.0,94,0.00,,,0.38,,2013-01-08 20:12:00,
2013-01-08 12:22:00,41.0,40.0,29.90,SE,146,0.0,2.0,95,0.01,,,0.39,,2013-01-08 20:22:00,
2013-01-08 12:33:00,41.0,40.0,29.89,East,101,0.0,7.0,95,0.02,,,0.38,,2013-01-08 20:33:00,
2013-01-08 12:43:00,41.0,40.0,29.89,East,101,0.0,7.0,95,0.02,,,0.38,,2013-01-08 20:43:00,
2013-01-08 12:53:00,41.0,40.0,29.88,ENE,57,0.0,5.0,95,0.03,,,0.39,,2013-01-08 20:53:00,
2013-01-08 13:02:00,42.0,41.0,29.88,ENE,62,2.0,6.0,95,0.04,,,0.40,,2013-01-08 21:02:00,
2013-01-08 13:12:00,42.0,41.0,29.88,ENE,62,2.0,6.0,95,0.04,,,0.40,,2013-01-08 21:12:00,
2013-01-08 13:22:00,42.0,41.0,29.86,East,92,2.0,6.0,96,0.03,,,0.40,,2013-01-08 21:22:00,
2013-01-08 13:33:00,43.0,42.0,29.85,ESE,119,2.0,5.0,96,0.02,,,0.40,,2013-01-08 21:33:00,
2013-01-08 13:42:00,43.0,42.0,29.85,ESE,119,2.0,5.0,96,0.02,,,0.40,,2013-01-08 21:42:00,
2013-01-08 13:52:00,43.0,42.0,29.84,ENE,71,2.0,9.0,96,0.02,,,0.41,,2013-01-08 21:52:00,
2013-01-08 14:02:00,44.0,43.0,29.84,East,86,1.0,9.0,96,0.01,,,0.41,,2013-01-08 22:02:00,
2013-01-08 14:12:00,44.0,43.0,29.84,East,86,1.0,9.0,96,0.01,,,0.41,,2013-01-08 22:12:00,
2013-01-08 14:22:00,45.0,44.0,29.83,East,89,2.0,8.0,96,0.02,,,0.42,,2013-01-08 22:22:00,
2013-01-08 14:32:00,46.0,45.0,29.83,ESE,119,5.0,11.0,96,0.02,,,0.42,,2013-01-08 22:32:00,
2013-01-08 14:42:00,46.0,45.0,29.83,ESE,119,5.0,11.0,96,0.02,,,0.42,,2013-01-08 22:42:00,
2013-01-08 14:52:00,46.0,45.0,29.82,NNW,338,2.0,10.0,96,0.01,,,0.42,,2013-01-08 22:52:00,
2013-01-08 15:02:00,47.0,46.0,29.81,SE,138,6.0,16.0,95,0.02,,,0.43,,2013-01-08 23:02:00,
2013-01-08 15:12:00,47.0,46.0,29.81,SE,138,6.0,16.0,95,0.02,,,0.43,,2013-01-08 23:12:00,
2013-01-08 15:22:00,47.0,46.0,29.81,SSE,154,5.0,14.0,95,0.01,,,0.43,,2013-01-08 23:22:00,
2013-01-08 15:32:00,47.0,46.0,29.82,ENE,78,6.0,15.0,95,0.02,,,0.44,,2013-01-08 23:32:00,
2013-01-08 15:42:00,47.0,46.0,29.82,ENE,78,6.0,15.0,95,0.02,,,0.44,,2013-01-08 23:42:00,
2013-01-08 15:52:00,48.0,47.0,29.81,SSE,167,6.0,15.0,95,0.02,,,0.44,,2013-01-08 23:52:00,
2013-01-08 16:02:00,48.0,47.0,29.80,East,81,3.0,14.0,95,0.02,,,0.45,,2013-01-09 00:02:00,
2013-01-08 16:12:00,48.0,47.0,29.80,East,81,3.0,14.0,95,0.02,,,0.45,,2013-01-09 00:12:00,
2013-01-08 16:22:00,48.0,47.0,29.78,SSE,156,4.0,15.0,95,0.02,,,0.45,,2013-01-09 00:22:00,
2013-01-08 16:32:00,49.0,48.0,29.77,SSE,157,5.0,14.0,95,0.01,,,0.45,,2013-01-09 00:32:00,
2013-01-08 16:42:00,49.0,48.0,29.77,SSE,157,5.0,14.0,95,0.01,,,0.45,,2013-01-09 00:42:00,
2013-01-08 16:52:00,49.0,48.0,29.78,South,172,5.0,13.0,95,0.01,,,0.45,,2013-01-09 00:52:00,
2013-01-08 17:02:00,49.0,48.0,29.77,ESE,110,3.0,10.0,95,0.01,,,0.46,,2013-01-09 01:02:00,
2013-01-08 17:12:00,49.0,48.0,29.77,ESE,110,3.0,10.0,95,0.01,,,0.46,,2013-01-09 01:12:00,
2013-01-08 17:22:00,49.0,48.0,29.77,ESE,103,2.0,10.0,95,0.01,,,0.46,,2013-01-09 01:22:00,
2013-01-08 17:32:00,49.0,48.0,29.76,ESE,105,4.0,14.0,95,0.02,,,0.41,,2013-01-09 01:32:00,
2013-01-08 17:42:00,49.0,48.0,29.76,ESE,105,4.0,14.0,95,0.02,,,0.41,,2013-01-09 01:42:00,
2013-01-08 17:52:00,50.0,48.0,29.75,SSE,153,9.0,20.0,94,0.03,,,0.42,,2013-01-09 01:52:00,
2013-01-08 18:02:00,50.0,48.0,29.75,South,171,5.0,19.0,94,0.03,,,0.43,,2013-01-09 02:02:00,
2013-01-08 18:12:00,50.0,48.0,29.75,South,171,5.0,19.0,94,0.03,,,0.43,,2013-01-09 02:12:00,
2013-01-08 18:22:00,50.0,48.0,29.74,East,101,3.0,21.0,93,0.03,,,0.43,,2013-01-09 02:22:00,
2013-01-08 18:32:00,50.0,48.0,29.73,SE,127,5.0,17.0,93,0.02,,,0.43,,2013-01-09 02:32:00,
2013-01-08 18:42:00,50.0,48.0,29.73,SE,127,5.0,17.0,93,0.02,,,0.43,,2013-01-09 02:42:00,
2013-01-08 18:52:00,50.0,48.0,29.74,SSE,164,6.0,14.0,93,0.02,,,0.44,,2013-01-09 02:52:00,
2013-01-08 19:02:00,50.0,48.0,29.73,SSE,157,6.0,16.0,94,0.02,,,0.45,,2013-01-09 03:02:00,
2013-01-08 19:12:00,50.0,48.0,29.73,SSE,157,6.0,16.0,94,0.02,,,0.45,,2013-01-09 03:12:00,
2013-01-08 19:22:00,50.0,48.0,29.72,SE,146,5.0,15.0,94,0.03,,,0.46,,2013-01-09 03:22:00,
2013-01-08 19:32:00,50.0,48.0,29.72,ESE,120,3.0,15.0,94,0.04,,,0.47,,2013-01-09 03:32:00,
2013-01-08 19:42:00,50.0,48.0,29.72,ESE,120,3.0,15.0,94,0.04,,,0.47,,2013-01-09 03:42:00,
2013-01-08 19:52:00,50.0,48.0,29.72,SSE,153,5.0,19.0,94,0.04,,,0.48,,2013-01-09 03:52:00,
2013-01-08 20:02:00,50.0,48.0,29.72,SE,132,4.0,17.0,94,0.04,,,0.49,,2013-01-09 04:02:00,
2013-01-08 20:12:00,50.0,48.0,29.72,SE,132,4.0,17.0,94,0.04,,,0.49,,2013-01-09 04:12:00,
2013-01-08 20:22:00,50.0,48.0,29.73,SSW,192,5.0,13.0,94,0.05,,,0.51,,2013-01-09 04:22:00,
2013-01-08 20:32:00,50.0,48.0,29.73,SSW,192,5.0,13.0,94,0.05,,,0.51,,2013-01-09 04:32:00,
2013-01-08 20:42:00,50.0,48.0,29.73,South,191,4.0,14.0,94,0.09,,,0.56,,2013-01-09 04:42:00,
2013-01-08 20:52:00,50.0,48.0,29.73,South,191,4.0,14.0,94,0.09,,,0.56,,2013-01-09 04:52:00,
2013-01-08 21:03:00,50.0,48.0,29.72,SSW,196,5.0,15.0,94,0.10,,,0.59,,2013-01-09 05:03:00,
2013-01-08 21:12:00,50.0,48.0,29.72,SSW,196,5.0,15.0,94,0.10,,,0.59,,2013-01-09 05:12:00,
2013-01-08 21:22:00,50.0,48.0,29.73,SSE,156,5.0,16.0,94,0.10,,,0.61,,2013-01-09 05:22:00,
2013-01-08 21:33:00,50.0,48.0,29.72,SSW,195,6.0,13.0,94,0.10,,,0.64,,2013-01-09 05:33:00,
2013-01-08 21:42:00,50.0,48.0,29.72,SSW,195,6.0,13.0,94,0.10,,,0.64,,2013-01-09 05:42:00,
2013-01-08 21:52:00,50.0,48.0,29.72,SE,130,4.0,15.0,93,0.08,,,0.65,,2013-01-09 05:52:00,
2013-01-08 22:02:00,50.0,48.0,29.71,SW,214,5.0,17.0,92,0.06,,,0.65,,2013-01-09 06:02:00,
2013-01-08 22:12:00,50.0,48.0,29.71,SW,214,5.0,17.0,92,0.06,,,0.65,,2013-01-09 06:12:00,
2013-01-08 22:22:00,50.0,47.0,29.71,SE,125,5.0,15.0,91,0.04,,,0.66,,2013-01-09 06:22:00,
2013-01-08 22:32:00,50.0,47.0,29.70,ESE,104,7.0,16.0,90,0.02,,,0.47,,2013-01-09 06:32:00,
2013-01-08 22:42:00,50.0,47.0,29.70,ESE,104,7.0,16.0,90,0.02,,,0.47,,2013-01-09 06:42:00,
2013-01-08 22:52:00,50.0,47.0,29.70,SE,130,6.0,16.0,90,0.02,,,0.48,,2013-01-09 06:52:00,
2013-01-08 23:02:00,50.0,47.0,29.70,SW,220,5.0,19.0,91,0.03,,,0.49,,2013-01-09 07:02:00,
2013-01-08 23:11:00,50.0,47.0,29.70,SW,220,5.0,19.0,91,0.03,,,0.49,,2013-01-09 07:11:00,
2013-01-08 23:22:00,50.0,47.0,29.70,SE,145,3.0,23.0,91,0.04,,,0.51,,2013-01-09 07:22:00,
2013-01-08 23:32:00,50.0,48.0,29.70,SSW,198,3.0,22.0,92,0.06,,,0.53,,2013-01-09 07:32:00,
2013-01-08 23:42:00,50.0,48.0,29.70,SSW,198,3.0,22.0,92,0.06,,,0.53,,2013-01-09 07:42:00,
2013-01-08 23:52:00,50.0,48.0,29.70,SSE,161,7.0,16.0,92,0.06,,,0.54,,2013-01-09 07:52:00,